Torna al catalogo

METEOR 2-8 DEB

AttivoPO
NORAD 36341·DEBRIS·🇷🇺 Russia

Lanciato Mar 25, 1982 da Plesetsk Cosmodrome

Loading…

Prossimi Passaggi (prossime 24 ore)

TLE

AggiornatoSource: Space-Track

Epoca: Sep 13, 2026, 08:30 UTC

1 36341U 82025AB  26256.35466076  .00002591  00000-0  10318-2 0  9994
2 36341  82.5098 127.7080 0008068 346.7460  13.3512 14.28309931203682

Traccia METEOR 2-8 DEB in tempo reale con AllMySat

Download on the App Store